TimeCEST,TemperatureF,Dew PointF,Humidity,Sea Level PressureIn,VisibilityMPH,Wind Direction,Wind SpeedMPH,Gust SpeedMPH,PrecipitationIn,Events,Conditions,WindDirDegrees,DateUTC
12:00 AM,71.6,60.8,69,29.65,6.2,SW,15.0,-,N/A,,Scattered Clouds,230,2012-10-14 22:00:00
12:30 AM,71.6,60.8,69,29.65,6.2,SW,15.0,-,N/A,,Scattered Clouds,230,2012-10-14 22:30:00
1:00 AM,71.6,62.6,73,29.65,6.2,WSW,18.4,-,N/A,,Scattered Clouds,240,2012-10-14 23:00:00
1:30 AM,66.2,59.0,78,29.65,6.2,NW,19.6,31.1,N/A,Rain,Light Rain,310,2012-10-14 23:30:00
2:00 AM,65,58,71,29.67,9,NW,11.5,,,Rain,Light Rain,310,2012-10-15 00:00:00
2:00 AM,66.2,60.8,83,29.65,6.2,NW,11.5,-,N/A,,Scattered Clouds,320,2012-10-15 00:00:00
2:30 AM,66.2,60.8,83,29.65,6.2,NNW,8.1,-,N/A,,Scattered Clouds,330,2012-10-15 00:30:00
3:00 AM,68.0,60.8,78,29.65,6.2,NNW,8.1,-,N/A,,Scattered Clouds,330,2012-10-15 01:00:00
3:30 AM,66.2,59.0,78,29.65,6.2,North,11.5,-,N/A,,Partly Cloudy,350,2012-10-15 01:30:00
4:00 AM,66.2,57.2,73,29.65,6.2,North,8.1,-,N/A,,Partly Cloudy,350,2012-10-15 02:00:00
4:30 AM,64.4,57.2,77,29.65,6.2,Calm,Calm,-,N/A,,Partly Cloudy,0,2012-10-15 02:30:00
5:00 AM,64.4,57.2,77,29.68,6.2,Variable,2.3,-,N/A,,Partly Cloudy,0,2012-10-15 03:00:00
5:30 AM,64.4,59.0,83,29.68,6.2,ENE,8.1,-,N/A,,Partly Cloudy,70,2012-10-15 03:30:00
6:00 AM,64.4,59.0,83,29.68,6.2,NE,5.8,-,N/A,,Scattered Clouds,50,2012-10-15 04:00:00
6:30 AM,62.6,59.0,88,29.68,6.2,NE,3.5,-,N/A,,Scattered Clouds,50,2012-10-15 04:30:00
7:00 AM,62.6,59.0,88,29.68,6.2,Variable,1.2,-,N/A,,Scattered Clouds,0,2012-10-15 05:00:00
7:30 AM,62.6,59.0,88,29.71,6.2,North,2.3,-,N/A,Rain,Light Rain,360,2012-10-15 05:30:00
8:00 AM,61,57,84,29.72,9,NW,4.6,,,,Overcast,320,2012-10-15 06:00:00
8:00 AM,62.6,59.0,88,29.71,6.2,North,4.6,-,N/A,,Scattered Clouds,350,2012-10-15 06:00:00
8:30 AM,62.6,55.4,77,29.71,6.2,WNW,2.3,-,N/A,,Scattered Clouds,300,2012-10-15 06:30:00
9:00 AM,62.6,55.4,77,29.71,6.2,North,3.5,-,N/A,,Scattered Clouds,360,2012-10-15 07:00:00
9:30 AM,62.6,59.0,88,29.74,6.2,NNE,4.6,-,N/A,,Scattered Clouds,30,2012-10-15 07:30:00
10:00 AM,60.8,57.2,88,29.77,6.2,ENE,19.6,-,N/A,,Scattered Clouds,60,2012-10-15 08:00:00
10:30 AM,60.8,57.2,88,29.77,6.2,ENE,15.0,-,N/A,,Scattered Clouds,70,2012-10-15 08:30:00
11:00 AM,62.6,57.2,82,29.80,6.2,ENE,17.3,-,N/A,,Scattered Clouds,60,2012-10-15 09:00:00
11:30 AM,62.6,55.4,77,29.80,6.2,NE,17.3,-,N/A,,Scattered Clouds,50,2012-10-15 09:30:00
12:00 PM,64.4,55.4,73,29.80,6.2,ENE,15.0,-,N/A,,Scattered Clouds,60,2012-10-15 10:00:00
12:30 PM,66.2,55.4,68,29.83,6.2,NE,19.6,-,N/A,,Scattered Clouds,50,2012-10-15 10:30:00
1:00 PM,68.0,55.4,64,29.83,6.2,ENE,21.9,-,N/A,,Scattered Clouds,60,2012-10-15 11:00:00
1:30 PM,68.0,53.6,60,29.83,6.2,ENE,21.9,-,N/A,,Scattered Clouds,60,2012-10-15 11:30:00
2:00 PM,66,49,44,29.83,19,NE,18.4,,,,Mostly Cloudy,50,2012-10-15 12:00:00
2:00 PM,66.2,53.6,64,29.83,6.2,ENE,20.7,-,N/A,,Scattered Clouds,60,2012-10-15 12:00:00
2:30 PM,68.0,55.4,64,29.83,6.2,ENE,20.7,-,N/A,,Scattered Clouds,60,2012-10-15 12:30:00
3:00 PM,68.0,53.6,60,29.83,6.2,NE,18.4,-,N/A,,Scattered Clouds,50,2012-10-15 13:00:00
3:30 PM,68.0,53.6,60,29.83,6.2,NE,19.6,-,N/A,,Scattered Clouds,50,2012-10-15 13:30:00
4:00 PM,66.2,51.8,60,29.86,6.2,NE,17.3,-,N/A,,Scattered Clouds,50,2012-10-15 14:00:00
4:30 PM,66.2,51.8,60,29.86,6.2,ENE,13.8,-,N/A,,Scattered Clouds,60,2012-10-15 14:30:00
5:00 PM,68.0,51.8,56,29.86,6.2,ENE,12.7,-,N/A,,Scattered Clouds,60,2012-10-15 15:00:00
5:30 PM,66.2,51.8,60,29.86,6.2,ENE,11.5,-,N/A,,Scattered Clouds,60,2012-10-15 15:30:00
6:00 PM,66.2,51.8,60,29.89,6.2,ENE,9.2,-,N/A,,Partly Cloudy,70,2012-10-15 16:00:00
6:30 PM,66.2,51.8,60,29.89,6.2,ENE,5.8,-,N/A,,Partly Cloudy,70,2012-10-15 16:30:00
7:00 PM,64.4,53.6,68,29.89,6.2,East,5.8,-,N/A,,Partly Cloudy,80,2012-10-15 17:00:00
8:00 PM,61,50,59,29.94,12,Calm,Calm,,,,Scattered Clouds,,2012-10-15 18:00:00
8:00 PM,62.6,53.6,72,29.92,6.2,Calm,Calm,-,N/A,,Partly Cloudy,0,2012-10-15 18:00:00
8:30 PM,59.0,53.6,82,29.95,6.2,Calm,Calm,-,N/A,,Partly Cloudy,0,2012-10-15 18:30:00
9:00 PM,59.0,53.6,82,29.95,6.2,Calm,Calm,-,N/A,,Partly Cloudy,0,2012-10-15 19:00:00
9:30 PM,59.0,53.6,82,29.95,6.2,Calm,Calm,-,N/A,,Partly Cloudy,0,2012-10-15 19:30:00
10:00 PM,57.2,53.6,88,29.98,6.2,ENE,1.2,-,N/A,,Partly Cloudy,60,2012-10-15 20:00:00
10:30 PM,57.2,53.6,88,29.98,6.2,Calm,Calm,-,N/A,,Partly Cloudy,0,2012-10-15 20:30:00
11:00 PM,55.4,53.6,94,29.98,6.2,Variable,1.2,-,N/A,,Partly Cloudy,0,2012-10-15 21:00:00
11:30 PM,55.4,53.6,94,30.01,6.2,Calm,Calm,-,N/A,,Scattered Clouds,0,2012-10-15 21:30:00